Portada
METAR-TAF:

METAR-TAF

Aeroports :

Eastern Slopes Regional Airport

Fryeburg, Maine, Estats Units d'Amèrica

latitud: 43-59-21N, longitud: 070-57-01W, altitud: 137 m

Observació

L'informe es va fer fa 52 minuts, a les 00:54 UTC
Vent 10 kt del Oest amb ràfegues de 16 kt, variant entre Oest/Sud-Oest i Nord-Oest
Temperatura -6°C
Humitat 45%
Pressió 1002 hPa
Visibilitat: 16.1 km
Núvols disperses a una alçada de 12000 ft

METAR: KIZG 050054Z AUTO 28010G16KT 240V310 10SM SCT120 M06/M16 A2959 RMK AO2 SLP026 T10611161

Hora: 20:46 (01:46 UTC)


TAF: manca

Observacions i pronòstics meteorològics de més de 4000 aeroports (METAR i TAF).

Les estacions disponibles són els punts grocs i vermells al mapa.

Posi el ratolí al punt desitjat per veure el nom de l'estació.

Feu clic per veure les observacions i els pronòstics meteorològics.

Per canviar el mapa: feu clic els botons verds amb una creu de color negre per apropar; al botó verd amb un guió per allunyar la imatge; o en les fletxes verdes per a mapes adjacents.


METAR-TAF: